When you browse on this site, cookies collect data to enhance your experience and personalize the content and advertising you see.
Visit our Privacy Policy to learn more. By continuing to use the site, you agree to this use of cookies and data.
  • In Hungary
  • List of Countries
  • For 7 days
  • Water Temperature
  • Weather Map
  • News
  • Weather Widgets
  • user-avatar
    Login

    Hourly Weather Borovoe

    Today, 19 January, Sunday

    Time Temperature Precipitation Wind Pressure Humidity
    00:00 -2°C° 0 mm 3 mps 750 mmHg 83%
    01:00 -2°C° 0 mm 3 mps 750 mmHg 84%
    02:00 -2°C° 0 mm 3 mps 751 mmHg 90%
    03:00 -2°C° 0 mm 3 mps 751 mmHg 90%
    04:00 -2°C° 0 mm 3 mps 751 mmHg 91%
    05:00 -2°C° 0 mm 3 mps 751 mmHg 91%
    06:00 -2°C° 0 mm 3 mps 751 mmHg 90%
    07:00 -1°C° 0 mm 3 mps 752 mmHg 90%
    08:00 -1°C° 0 mm 3 mps 752 mmHg 89%
    09:00 0°C° 0 mm 3 mps 752 mmHg 87%
    10:00 0°C° 0 mm 3 mps 752 mmHg 85%
    11:00 -1°C° 0 mm 4 mps 752 mmHg 84%
    12:00 -1°C° 0 mm 4 mps 752 mmHg 83%
    13:00 -1°C° 0 mm 4 mps 753 mmHg 82%
    14:00 -1°C° 0 mm 4 mps 753 mmHg 81%
    15:00 -1°C° 0 mm 4 mps 753 mmHg 82%
    16:00 -1°C° 0 mm 4 mps 753 mmHg 83%
    17:00 -1°C° 0 mm 4 mps 753 mmHg 84%
    18:00 -1°C° 0 mm 4 mps 753 mmHg 85%
    19:00 -1°C° 0 mm 4 mps 753 mmHg 86%
    20:00 -1°C° 0 mm 4 mps 753 mmHg 88%
    21:00 -1°C° 0 mm 4 mps 753 mmHg 89%
    22:00 -1°C° 0 mm 4 mps 753 mmHg 89%
    23:00 0°C° 0 mm 4 mps 753 mmHg 90%

    Tomorrow, 20 January, Monday

    Time Temperature Precipitation Wind Pressure Humidity
    00:00 0°C° 0 mm 4 mps 753 mmHg 89%
    01:00 0°C° 0 mm 4 mps 753 mmHg 89%
    02:00 0°C° 0 mm 4 mps 753 mmHg 88%
    03:00 0°C° 0 mm 4 mps 753 mmHg 88%
    04:00 0°C° 0 mm 4 mps 753 mmHg 89%
    05:00 0°C° 0 mm 4 mps 753 mmHg 89%
    06:00 0°C° 0 mm 4 mps 753 mmHg 89%
    07:00 0°C° 0 mm 4 mps 753 mmHg 89%
    08:00 0°C° 0 mm 4 mps 754 mmHg 89%
    09:00 0°C° 0 mm 4 mps 753 mmHg 90%
    10:00 0°C° 0 mm 4 mps 753 mmHg 91%
    11:00 0°C° 0 mm 5 mps 753 mmHg 91%
    12:00 -1°C° 0 mm 5 mps 753 mmHg 92%
    13:00 -1°C° 0 mm 5 mps 753 mmHg 93%
    14:00 -1°C° 0 mm 5 mps 753 mmHg 94%
    15:00 -1°C° 0 mm 5 mps 753 mmHg 93%
    16:00 -1°C° 0 mm 5 mps 753 mmHg 92%
    17:00 0°C° 0 mm 5 mps 752 mmHg 91%
    18:00 -1°C° 0 mm 5 mps 752 mmHg 88%
    19:00 -1°C° 0 mm 5 mps 752 mmHg 84%
    20:00 -1°C° 0 mm 5 mps 751 mmHg 81%
    21:00 -1°C° 0 mm 5 mps 751 mmHg 80%
    22:00 -1°C° 0 mm 5 mps 750 mmHg 78%
    23:00 -1°C° 0 mm 5 mps 750 mmHg 77%

    Day after tomorrow, 21 January, Tuesday

    Time Temperature Precipitation Wind Pressure Humidity
    00:00 -1°C° 0 mm 5 mps 749 mmHg 77%
    01:00 -1°C° 0 mm 5 mps 748 mmHg 77%
    02:00 -1°C° 0 mm 5 mps 748 mmHg 77%
    03:00 -1°C° 0 mm 5 mps 747 mmHg 79%
    04:00 -2°C° 0 mm 6 mps 746 mmHg 80%
    05:00 -2°C° 0 mm 6 mps 745 mmHg 81%
    06:00 -1°C° 0.1 mm 6 mps 744 mmHg 83%
    07:00 -1°C° 0.1 mm 6 mps 744 mmHg 84%
    08:00 -1°C° 0.1 mm 7 mps 743 mmHg 86%
    09:00 +1°C° 0 mm 6 mps 743 mmHg 86%
    10:00 +2°C° 0 mm 6 mps 742 mmHg 87%
    11:00 +2°C° 0 mm 6 mps 741 mmHg 87%
    12:00 +2°C° 0 mm 6 mps 741 mmHg 87%
    13:00 +3°C° 0 mm 6 mps 741 mmHg 87%
    14:00 +3°C° 0 mm 5 mps 741 mmHg 86%
    15:00 +3°C° 0 mm 5 mps 740 mmHg 88%
    16:00 +3°C° 0 mm 5 mps 739 mmHg 89%
    17:00 +4°C° 0 mm 4 mps 738 mmHg 90%
    18:00 +4°C° 1.2 mm 4 mps 738 mmHg 91%
    19:00 +3°C° 1.2 mm 5 mps 737 mmHg 93%
    20:00 +3°C° 1.2 mm 5 mps 737 mmHg 94%
    21:00 +2°C° 0.5 mm 5 mps 736 mmHg 94%
    22:00 +1°C° 0.5 mm 6 mps 736 mmHg 93%
    23:00 -1°C° 0.5 mm 6 mps 736 mmHg 93%

    22 January, Wednesday

    Time Temperature Precipitation Wind Pressure Humidity
    00:00 -1°C° 0.1 mm 6 mps 736 mmHg 88%
    01:00 -2°C° 0.1 mm 6 mps 737 mmHg 83%
    02:00 -2°C° 0.1 mm 6 mps 738 mmHg 77%
    03:00 -3°C° 0 mm 6 mps 737 mmHg 77%
    04:00 -2°C° 0 mm 5 mps 737 mmHg 76%
    05:00 -2°C° 0 mm 5 mps 737 mmHg 76%
    06:00 -2°C° 0 mm 5 mps 736 mmHg 76%
    07:00 -2°C° 0 mm 5 mps 736 mmHg 77%
    08:00 -2°C° 0 mm 5 mps 736 mmHg 77%
    09:00 -2°C° 0 mm 5 mps 735 mmHg 78%
    10:00 -2°C° 0 mm 5 mps 735 mmHg 78%
    11:00 -2°C° 0 mm 5 mps 735 mmHg 79%
    12:00 -2°C° 0.2 mm 5 mps 734 mmHg 79%
    13:00 -2°C° 0.2 mm 5 mps 734 mmHg 78%
    14:00 -2°C° 0.2 mm 5 mps 734 mmHg 77%
    15:00 -2°C° 0 mm 5 mps 734 mmHg 78%
    16:00 -3°C° 0 mm 4 mps 734 mmHg 78%
    17:00 -4°C° 0 mm 3 mps 734 mmHg 79%
    18:00 -4°C° 0 mm 4 mps 735 mmHg 80%
    19:00 -4°C° 0 mm 4 mps 735 mmHg 80%
    20:00 -4°C° 0 mm 4 mps 735 mmHg 81%
    21:00 -4°C° 0 mm 4 mps 736 mmHg 81%
    22:00 -4°C° 0 mm 4 mps 736 mmHg 81%
    23:00 -4°C° 0 mm 4 mps 737 mmHg 81%

    23 January, Thursday

    Time Temperature Precipitation Wind Pressure Humidity
    00:00 -5°C° 0.1 mm 5 mps 737 mmHg 75%
    01:00 -6°C° 0.1 mm 6 mps 738 mmHg 69%
    02:00 -6°C° 0.1 mm 6 mps 739 mmHg 62%
    03:00 -6°C° 0 mm 6 mps 739 mmHg 61%
    04:00 -8°C° 0 mm 6 mps 740 mmHg 59%
    05:00 -9°C° 0 mm 6 mps 740 mmHg 57%
    06:00 -8°C° 0 mm 6 mps 741 mmHg 59%
    07:00 -8°C° 0 mm 6 mps 741 mmHg 62%
    08:00 -8°C° 0 mm 6 mps 742 mmHg 64%
    09:00 -8°C° 0 mm 6 mps 742 mmHg 65%
    10:00 -8°C° 0 mm 6 mps 742 mmHg 65%
    11:00 -8°C° 0 mm 7 mps 743 mmHg 66%
    12:00 -8°C° 0 mm 6 mps 743 mmHg 60%
    13:00 -6°C° 0 mm 6 mps 743 mmHg 55%
    14:00 -6°C° 0 mm 6 mps 744 mmHg 50%
    15:00 -6°C° 0 mm 5 mps 744 mmHg 52%
    16:00 -7°C° 0 mm 5 mps 744 mmHg 55%
    17:00 -7°C° 0 mm 4 mps 745 mmHg 58%
    18:00 -7°C° 0 mm 4 mps 745 mmHg 61%
    19:00 -6°C° 0 mm 3 mps 745 mmHg 63%
    20:00 -6°C° 0 mm 3 mps 745 mmHg 66%
    21:00 -6°C° 0 mm 3 mps 745 mmHg 71%
    22:00 -6°C° 0 mm 3 mps 744 mmHg 76%
    23:00 -6°C° 0 mm 3 mps 744 mmHg 81%

    24 January, Friday

    Time Temperature Precipitation Wind Pressure Humidity
    00:00 -6°C° 0 mm 3 mps 743 mmHg 82%
    01:00 -7°C° 0 mm 4 mps 742 mmHg 84%
    02:00 -5°C° 0 mm 4 mps 742 mmHg 86%
    03:00 -5°C° 0.2 mm 4 mps 740 mmHg 88%
    04:00 -6°C° 0.2 mm 5 mps 739 mmHg 90%
    05:00 -6°C° 0.2 mm 5 mps 737 mmHg 92%
    06:00 -5°C° 0.6 mm 5 mps 736 mmHg 93%
    07:00 -5°C° 0.6 mm 5 mps 735 mmHg 93%
    08:00 -4°C° 0.6 mm 5 mps 734 mmHg 94%
    09:00 -2°C° 0.3 mm 5 mps 734 mmHg 92%
    10:00 -1°C° 0.3 mm 5 mps 733 mmHg 90%
    11:00 +1°C° 0.3 mm 4 mps 733 mmHg 88%
    12:00 0°C° 0 mm 4 mps 733 mmHg 86%
    13:00 0°C° 0 mm 4 mps 733 mmHg 84%
    14:00 0°C° 0 mm 4 mps 733 mmHg 82%
    15:00 -1°C° 0.1 mm 5 mps 734 mmHg 85%
    16:00 -1°C° 0.1 mm 5 mps 734 mmHg 87%
    17:00 -2°C° 0.1 mm 5 mps 735 mmHg 89%
    18:00 -2°C° 0 mm 5 mps 735 mmHg 87%
    19:00 -4°C° 0 mm 5 mps 736 mmHg 84%
    20:00 -4°C° 0 mm 5 mps 736 mmHg 81%
    21:00 -4°C° 0 mm 5 mps 736 mmHg 80%
    22:00 -4°C° 0 mm 4 mps 737 mmHg 78%
    23:00 -4°C° 0 mm 4 mps 737 mmHg 77%
    Show more